#timestamp,LO_Frequency,Hit,StdDev 
1510020015.2,286047009.5,N
1510020035.0,286047010.4,N
1510020035.9,286047010.4,N
1510020055.8,286047007.4,N
1510020075.6,286047007.7,N
1510020095.4,286047009.8,Y
1510020115.3,286047001.9,P
1510020135.1,286047002.8,N
1510020155.9,286046999.9,N
1510020175.7,286047000.1,N
1510020195.5,286046997.2,N
1510020215.4,286046997.4,N
1510020235.2,286046999.1,N
1510020255.0,286046999.8,N
1510020256.0,286046999.8,N
1510020275.8,286047003.7,N
1510020295.6,286047005.8,N
1510020315.5,286047005.2,N
1510020335.3,286047006.1,N
1510020355.1,286047006.5,N
1510020375.9,286047005.4,N
1510020395.7,286047003.7,N
1510020415.6,286047000.2,N
1510020435.4,286046999.6,N
1510020455.2,286046995.0,N
1510020475.1,286046996.1,N
1510020476.0,286046996.1,N
1510020495.8,286046994.8,N
1510020515.6,286046992.1,N
1510020535.5,286046991.1,N
1510020555.3,286046987.5,N
1510020575.2,286046987.5,N
1510020595.9,286046987.3,N
1510020615.7,286046984.8,N
1510020635.6,286046983.4,N
1510020655.4,286046980.6,N
1510020675.3,286046981.4,N
1510020695.1,286046980.5,N
1510020696.0,286046980.5,N
1510020715.8,286046981.6,N
1510020735.7,286046982.0,N
1510020755.5,286046980.2,N
1510020775.3,286046978.6,N
1510020795.2,286046980.1,N
1510020815.0,286046979.4,N
1510020815.9,286046979.4,N
1510020835.8,286046980.0,N
1510020855.6,286046978.5,N
1510020875.4,286046976.6,N
1510020895.3,286046975.1,N
1510020915.1,286046972.9,Y
1510020935.9,286046985.4,P
1510020955.7,286046988.1,P
1510020975.6,286046988.7,P
1510020995.4,286046992.7,Y
1510021015.2,286047005.0,P
1510021035.1,286047006.2,N
1510021036.0,286047006.2,N
1510021055.8,286047006.8,N
1510021075.7,286047007.4,N
1510021095.5,286047010.6,N
1510021115.3,286047011.2,N
1510021135.2,286047012.4,N
1510021155.0,286047013.2,N
1510021155.9,286047013.2,N
1510021175.8,286047015.3,N
1510021195.6,286047010.0,N
1510021215.5,286047011.5,N
1510021235.3,286047009.5,N
1510021255.1,286047014.1,N
1510021275.9,286047013.0,N
1510021295.7,286047015.5,N
1510021315.5,286047011.6,N
1510021335.4,286047016.3,N
1510021355.2,286047023.6,Y
1510021375.1,286047016.7,P
1510021376.0,286047016.7,P
1510021395.8,286047016.3,P
1510021415.7,286047012.6,Y
1510021435.5,286046998.6,P
1510021455.4,286046999.4,N
1510021475.2,286046999.1,N
1510021495.0,286047002.6,N
1510021495.9,286047002.6,N
1510021515.8,286047005.1,N
1510021535.6,286047005.4,N
1510021555.5,286047003.4,N
1510021575.3,286047003.8,N
1510021595.1,286047005.1,N
1510021615.9,286047006.4,N
1510021635.7,286047005.9,N
1510021655.6,286047003.5,N
1510021675.4,286047006.8,N
1510021695.2,286047008.5,N
1510021715.1,286047007.0,N
1510021716.0,286047007.0,N
1510021735.8,286047008.4,N
1510021755.7,286047011.0,N
1510021775.5,286047011.4,N
1510021795.4,286047012.4,Y
1510021815.2,286047005.0,P
1510021835.0,286047006.9,P
1510021836.0,286047006.9,P
1510021855.8,286047008.8,Y
1510021875.6,286047004.4,P
1510021895.5,286047006.8,P
1510021915.3,286047007.5,P
1510021935.2,286047007.1,Y
1510021955.0,286046997.8,P
1510021955.9,286046997.8,N
1510021975.8,286046999.6,N
1510021995.6,286046998.4,N
1510022015.4,286046997.8,N
1510022035.3,286046993.9,N
1510022055.1,286046993.5,N
1510022075.9,286046994.5,N
1510022095.7,286046991.4,N
1510022115.5,286046990.7,N
1510022135.4,286046991.3,N
1510022155.2,286046993.2,N
1510022175.1,286046990.6,N
1510022176.0,286046990.6,N
1510022195.8,286046990.4,N
1510022215.6,286046992.8,N
1510022235.5,286046991.6,N
1510022255.3,286046988.6,N
1510022275.2,286046988.5,N
1510022295.9,286046991.1,N
1510022315.7,286046989.9,N
1510022335.6,286046989.5,N
1510022355.4,286046991.1,N
1510022375.3,286046992.1,N
1510022395.1,286046992.5,N
1510022415.9,286046990.6,N
1510022435.7,286046990.4,N
1510022455.5,286046990.2,N
1510022475.4,286046990.2,N
1510022495.2,286046990.9,N
1510022515.1,286046993.6,N
1510022516.0,286046993.6,N
1510022535.8,286046994.2,N
1510022555.6,286046995.0,N
1510022575.5,286046997.9,N
1510022595.3,286046997.3,N
1510022615.2,286046995.1,N
1510022635.0,286046998.7,N
1510022635.9,286046998.7,N
1510022655.8,286046999.9,N
1510022675.6,286047001.7,N
1510022695.4,286046999.8,N
1510022715.3,286046998.5,N
1510022735.1,286047000.3,N
1510022755.9,286047000.9,N
1510022775.7,286047000.5,N
1510022795.6,286046998.1,N
1510022815.4,286046999.1,N
1510022835.2,286046996.8,N
1510022855.1,286046995.0,N
1510022856.0,286046995.0,N
1510022875.8,286046995.1,N
1510022895.7,286046994.3,N
1510022915.5,286046992.5,N
1510022935.3,286046991.0,N
1510022955.1,286046993.2,N
1510022975.9,286046991.4,N
1510022995.7,286046990.8,N
1510023015.5,286046994.1,N
1510023035.4,286046997.2,N
1510023055.2,286046998.0,N
1510023075.0,286046994.8,N
1510023075.9,286046994.8,N
1510023095.8,286046992.6,N
1510023115.6,286046992.1,N
1510023135.4,286046993.2,N
1510023155.3,286046987.5,Y
1510023175.1,286046987.4,P
1510023195.8,286046994.8,N
1510023215.7,286046991.5,N
1510023235.5,286046985.3,Y
1510023255.4,286046987.7,P
1510023275.2,286046989.7,P
1510023295.0,286046989.1,P
1510023295.9,286046989.1,Y
1510023315.8,286046999.7,P
1510023335.6,286047002.0,N
1510023355.4,286046996.6,N
1510023375.3,286047000.6,N
1510023395.1,286047001.9,N
1510023396.0,286047001.9,N
1510023415.8,286047002.1,N
1510023435.7,286047001.2,N
1510023455.5,286047001.2,N
1510023475.3,286047005.1,N
1510023495.2,286047005.9,N
1510023515.9,286047004.6,N
1510023535.7,286047005.4,N
1510023555.6,286047004.1,N
1510023575.4,286047005.8,N
1510023595.2,286047000.2,N
